Time,TemperatureF,DewpointF,PressureIn,WindDirection,WindDirectionDegrees,WindSpeedMPH,WindSpeedGustMPH,Humidity,HourlyPrecipIn,Conditions,Clouds,dailyrainin,SolarRadiationWatts/m^2,SoftwareType,DateUTC
2013-03-17 00:00:00,58.2,50.3,29.95,SSE,155,0.0,0.0,75,0.00,CLR,SKC,0.00,0.0,WeatherDisplay:10.37,2013-03-17 04:00:00,
2013-03-17 00:05:00,58.4,50.5,29.95,SSE,155,0.0,0.0,75,0.00,CLR,SKC,0.00,0.0,WeatherDisplay:10.37,2013-03-17 04:05:00,
2013-03-17 00:10:00,58.5,50.6,29.95,SSE,155,0.0,0.0,75,0.00,CLR,SKC,0.00,0.0,WeatherDisplay:10.37,2013-03-17 04:10:00,
2013-03-17 00:15:00,58.7,50.4,29.95,SSE,155,0.0,0.0,74,0.00,CLR,SKC,0.00,0.0,WeatherDisplay:10.37,2013-03-17 04:15:00,
2013-03-17 00:20:00,58.8,50.5,29.95,SSE,155,0.0,0.0,74,0.00,CLR,SKC,0.00,0.0,WeatherDisplay:10.37,2013-03-17 04:20:00,
2013-03-17 00:25:00,59.1,50.8,29.95,SSE,157,1.2,1.2,74,0.00,CLR,SKC,0.00,0.0,WeatherDisplay:10.37,2013-03-17 04:25:00,
2013-03-17 00:30:00,59.1,50.8,29.95,SSE,156,1.2,1.2,74,0.00,CLR,SKC,0.00,0.0,WeatherDisplay:10.37,2013-03-17 04:30:00,
2013-03-17 00:35:00,59.1,50.8,29.95,SSE,157,0.0,0.0,74,0.00,CLR,SKC,0.00,0.0,WeatherDisplay:10.37,2013-03-17 04:35:00,
2013-03-17 00:40:00,59.0,50.7,29.96,SSE,157,0.0,0.0,74,0.00,CLR,SKC,0.00,0.0,WeatherDisplay:10.37,2013-03-17 04:40:00,
2013-03-17 00:45:00,58.6,50.3,29.95,SSE,157,0.0,0.0,74,0.00,CLR,SKC,0.00,0.0,WeatherDisplay:10.37,2013-03-17 04:45:00,
2013-03-17 00:50:00,58.4,50.5,29.96,SSE,156,1.2,0.0,75,0.00,CLR,SKC,0.00,0.0,WeatherDisplay:10.37,2013-03-17 04:50:00,
2013-03-17 00:55:00,58.5,51.0,29.95,SSE,156,1.2,0.0,76,0.00,CLR,SKC,0.00,0.0,WeatherDisplay:10.37,2013-03-17 04:55:00,
2013-03-17 01:00:00,58.7,50.8,29.96,SSE,157,0.0,0.0,75,0.00,CLR,SKC,0.00,0.0,WeatherDisplay:10.37,2013-03-17 05:00:00,
2013-03-17 01:05:00,58.5,51.0,29.96,SSE,156,0.0,0.0,76,0.00,CLR,SKC,0.00,0.0,WeatherDisplay:10.37,2013-03-17 05:05:00,
2013-03-17 01:10:00,58.3,51.1,29.96,SSE,157,1.2,0.0,77,0.00,CLR,SKC,0.00,0.0,WeatherDisplay:10.37,2013-03-17 05:10:00,
2013-03-17 01:15:00,58.3,51.1,29.96,SSE,156,0.0,0.0,77,0.00,CLR,SKC,0.00,0.0,WeatherDisplay:10.37,2013-03-17 05:15:00,
2013-03-17 01:20:00,58.2,51.0,29.96,SE,146,2.3,2.3,77,0.00,CLR,SKC,0.00,0.0,WeatherDisplay:10.37,2013-03-17 05:20:00,
2013-03-17 01:25:00,58.1,50.9,29.96,SE,146,0.0,0.0,77,0.00,CLR,SKC,0.00,0.0,WeatherDisplay:10.37,2013-03-17 05:25:00,
2013-03-17 01:30:00,57.9,51.1,29.95,SE,146,0.0,0.0,78,0.00,CLR,SKC,0.00,0.0,WeatherDisplay:10.37,2013-03-17 05:30:00,
2013-03-17 01:35:00,58.0,51.2,29.96,SW,216,1.2,0.0,78,0.00,CLR,SKC,0.00,0.0,WeatherDisplay:10.37,2013-03-17 05:35:00,
2013-03-17 01:40:00,58.2,51.0,29.96,ESE,115,1.2,1.2,77,0.00,CLR,SKC,0.00,0.0,WeatherDisplay:10.37,2013-03-17 05:40:00,
2013-03-17 01:45:00,58.3,51.1,29.96,ESE,115,0.0,0.0,77,0.00,CLR,SKC,0.00,0.0,WeatherDisplay:10.37,2013-03-17 05:45:00,
2013-03-17 01:50:00,58.7,51.2,29.96,NNW,329,1.2,0.0,76,0.00,CLR,SKC,0.00,0.0,WeatherDisplay:10.37,2013-03-17 05:50:00,
2013-03-17 01:55:00,58.8,50.9,29.96,NNW,329,0.0,0.0,75,0.00,CLR,SKC,0.00,0.0,WeatherDisplay:10.37,2013-03-17 05:55:00,
2013-03-17 02:00:00,58.8,50.9,29.96,NNW,329,0.0,0.0,75,0.00,CLR,SKC,0.00,0.0,WeatherDisplay:10.37,2013-03-17 06:00:00,
2013-03-17 02:05:00,58.9,51.0,29.96,WSW,254,1.2,0.0,75,0.00,CLR,SKC,0.00,0.0,WeatherDisplay:10.37,2013-03-17 06:05:00,
2013-03-17 02:10:00,59.0,51.1,29.97,SW,222,1.0,1.0,75,0.00,CLR,SKC,0.00,0.0,WeatherDisplay:10.37,2013-03-17 06:10:00,
2013-03-17 02:15:00,59.4,51.1,29.97,West,280,1.2,1.2,74,0.00,CLR,SKC,0.00,0.0,WeatherDisplay:10.37,2013-03-17 06:15:00,
2013-03-17 02:20:00,59.6,50.9,29.97,NNW,333,3.5,3.5,73,0.00,CLR,SKC,0.00,0.0,WeatherDisplay:10.37,2013-03-17 06:20:00,
2013-03-17 02:26:00,59.9,50.8,29.97,North,5,1.2,0.0,72,0.00,CLR,SKC,0.00,0.0,WeatherDisplay:10.37,2013-03-17 06:26:00,
2013-03-17 02:31:00,60.0,50.9,29.97,West,261,1.2,0.0,72,0.00,CLR,SKC,0.00,0.0,WeatherDisplay:10.37,2013-03-17 06:31:00,
2013-03-17 02:36:00,60.2,51.1,29.97,WNW,286,2.3,2.3,72,0.00,CLR,SKC,0.00,0.0,WeatherDisplay:10.37,2013-03-17 06:36:00,
2013-03-17 02:41:00,60.2,51.1,29.97,NW,321,0.0,0.3,72,0.00,CLR,SKC,0.00,0.0,WeatherDisplay:10.37,2013-03-17 06:41:00,
2013-03-17 02:46:00,60.2,51.1,29.97,NW,321,0.0,0.0,72,0.00,CLR,SKC,0.00,0.0,WeatherDisplay:10.37,2013-03-17 06:46:00,
2013-03-17 02:51:00,60.1,51.0,29.97,NW,321,1.2,0.0,72,0.00,CLR,SKC,0.00,0.0,WeatherDisplay:10.37,2013-03-17 06:51:00,
2013-03-17 02:56:00,60.1,51.0,29.97,NW,321,1.2,1.2,72,0.00,CLR,SKC,0.00,0.0,WeatherDisplay:10.37,2013-03-17 06:56:00,
2013-03-17 03:01:00,60.1,51.0,29.97,NW,321,2.3,2.3,72,0.00,CLR,SKC,0.00,0.0,WeatherDisplay:10.37,2013-03-17 07:01:00,
2013-03-17 03:06:00,60.0,50.9,29.97,SW,217,2.3,2.3,72,0.00,CLR,SKC,0.00,0.0,WeatherDisplay:10.37,2013-03-17 07:06:00,
2013-03-17 03:11:00,59.9,51.2,29.97,SW,217,0.0,0.0,73,0.00,CLR,SKC,0.00,0.0,WeatherDisplay:10.37,2013-03-17 07:11:00,
2013-03-17 03:17:00,59.9,51.2,29.97,WSW,257,0.0,0.0,73,0.00,CLR,SKC,0.00,0.0,WeatherDisplay:10.37,2013-03-17 07:17:00,
2013-03-17 03:22:00,59.8,51.1,29.97,WNW,285,3.5,3.5,73,0.00,CLR,SKC,0.00,0.0,WeatherDisplay:10.37,2013-03-17 07:22:00,
2013-03-17 03:27:00,59.6,50.9,29.97,WNW,285,1.2,0.0,73,0.00,CLR,SKC,0.00,0.0,WeatherDisplay:10.37,2013-03-17 07:27:00,
2013-03-17 03:32:00,59.6,51.3,29.97,WNW,285,2.3,2.3,74,0.00,CLR,SKC,0.00,0.0,WeatherDisplay:10.37,2013-03-17 07:32:00,
2013-03-17 03:37:00,59.7,51.4,29.97,WNW,285,0.0,0.0,74,0.00,CLR,SKC,0.00,0.0,WeatherDisplay:10.37,2013-03-17 07:37:00,
2013-03-17 03:42:00,59.4,51.1,29.97,WNW,285,1.2,0.0,74,0.00,CLR,SKC,0.00,0.0,WeatherDisplay:10.37,2013-03-17 07:42:00,
2013-03-17 03:47:00,59.6,51.3,29.97,WSW,242,1.0,1.0,74,0.00,CLR,SKC,0.00,0.0,WeatherDisplay:10.37,2013-03-17 07:47:00,
2013-03-17 03:52:00,59.5,51.2,29.97,West,266,2.3,0.0,74,0.00,CLR,SKC,0.00,0.0,WeatherDisplay:10.37,2013-03-17 07:52:00,
2013-03-17 03:57:00,59.5,51.6,29.97,West,266,1.2,0.0,75,0.00,CLR,SKC,0.00,0.0,WeatherDisplay:10.37,2013-03-17 07:57:00,
2013-03-17 04:03:00,59.6,51.7,29.96,West,277,1.2,1.2,75,0.00,CLR,SKC,0.00,0.0,WeatherDisplay:10.37,2013-03-17 08:03:00,
2013-03-17 04:08:00,59.6,51.7,29.96,SW,221,1.2,0.0,75,0.00,CLR,SKC,0.00,0.0,WeatherDisplay:10.37,2013-03-17 08:08:00,
2013-03-17 04:13:00,59.5,51.6,29.96,West,272,3.5,3.5,75,0.00,CLR,SKC,0.00,0.0,WeatherDisplay:10.37,2013-03-17 08:13:00,
2013-03-17 04:18:00,59.6,51.7,29.96,West,274,1.2,1.2,75,0.00,CLR,SKC,0.00,0.0,WeatherDisplay:10.37,2013-03-17 08:18:00,
2013-03-17 04:23:00,59.7,51.8,29.96,West,271,0.0,0.0,75,0.00,CLR,SKC,0.00,0.0,WeatherDisplay:10.37,2013-03-17 08:23:00,
2013-03-17 04:28:00,59.7,51.8,29.96,ESE,111,2.3,2.3,75,0.00,CLR,SKC,0.00,0.0,WeatherDisplay:10.37,2013-03-17 08:28:00,
2013-03-17 04:33:00,59.5,51.6,29.96,WSW,248,0.0,0.0,75,0.00,CLR,SKC,0.00,0.0,WeatherDisplay:10.37,2013-03-17 08:33:00,
2013-03-17 04:38:00,59.6,52.0,29.97,SSW,196,3.5,3.5,76,0.00,CLR,SKC,0.00,0.0,WeatherDisplay:10.37,2013-03-17 08:38:00,
2013-03-17 04:43:00,59.6,52.0,29.97,SW,236,1.2,1.2,76,0.00,CLR,SKC,0.00,0.0,WeatherDisplay:10.37,2013-03-17 08:43:00,
2013-03-17 04:48:00,59.6,52.0,29.97,SW,236,0.0,0.0,76,0.00,CLR,SKC,0.00,0.0,WeatherDisplay:10.37,2013-03-17 08:48:00,
2013-03-17 04:53:00,59.4,51.8,29.97,WNW,288,1.2,1.2,76,0.00,CLR,SKC,0.00,0.0,WeatherDisplay:10.37,2013-03-17 08:53:00,
2013-03-17 04:58:00,59.1,51.9,29.97,WNW,288,0.0,0.0,77,0.00,CLR,SKC,0.00,0.0,WeatherDisplay:10.37,2013-03-17 08:58:00,
2013-03-17 05:03:00,58.8,51.6,29.97,NE,44,0.0,0.0,77,0.00,CLR,SKC,0.00,0.0,WeatherDisplay:10.37,2013-03-17 09:03:00,
2013-03-17 05:08:00,58.6,51.8,29.97,ENE,73,1.2,1.2,78,0.00,CLR,SKC,0.00,0.0,WeatherDisplay:10.37,2013-03-17 09:08:00,
2013-03-17 05:13:00,58.6,52.1,29.97,NE,45,1.2,1.2,79,0.00,CLR,SKC,0.00,0.0,WeatherDisplay:10.37,2013-03-17 09:13:00,
2013-03-17 05:18:00,58.5,52.0,29.97,NE,45,0.0,0.0,79,0.00,CLR,SKC,0.00,0.0,WeatherDisplay:10.37,2013-03-17 09:18:00,
2013-03-17 05:23:00,58.4,51.9,29.97,NE,34,0.0,0.0,79,0.00,CLR,SKC,0.00,0.0,WeatherDisplay:10.37,2013-03-17 09:23:00,
2013-03-17 05:28:00,58.1,52.0,29.97,WNW,302,1.2,1.2,80,0.00,CLR,SKC,0.00,0.0,WeatherDisplay:10.37,2013-03-17 09:28:00,
2013-03-17 05:33:00,57.9,51.8,29.97,South,183,0.0,0.0,80,0.00,CLR,SKC,0.00,0.0,WeatherDisplay:10.37,2013-03-17 09:33:00,
2013-03-17 05:38:00,57.9,52.1,29.98,WSW,254,2.3,2.3,81,0.00,CLR,SKC,0.00,0.0,WeatherDisplay:10.37,2013-03-17 09:38:00,
2013-03-17 05:43:00,57.9,52.1,29.98,WSW,254,0.0,0.0,81,0.00,CLR,SKC,0.00,0.0,WeatherDisplay:10.37,2013-03-17 09:43:00,
2013-03-17 05:48:00,57.7,51.9,29.98,WSW,254,0.0,0.0,81,0.00,CLR,SKC,0.00,0.0,WeatherDisplay:10.37,2013-03-17 09:48:00,
2013-03-17 05:53:00,57.6,52.1,29.98,WSW,254,0.0,0.0,82,0.00,CLR,SKC,0.00,0.0,WeatherDisplay:10.37,2013-03-17 09:53:00,
2013-03-17 05:58:00,57.4,51.9,29.98,WSW,254,0.0,0.0,82,0.00,CLR,SKC,0.00,0.0,WeatherDisplay:10.37,2013-03-17 09:58:00,
2013-03-17 06:03:00,57.2,51.8,29.98,WSW,254,0.0,0.3,82,0.00,CLR,SKC,0.00,0.0,WeatherDisplay:10.37,2013-03-17 10:03:00,
2013-03-17 06:08:00,56.8,51.7,29.98,WSW,254,0.0,0.0,83,0.00,CLR,SKC,0.00,0.0,WeatherDisplay:10.37,2013-03-17 10:08:00,
2013-03-17 06:13:00,56.8,52.0,29.99,West,262,2.3,0.0,84,0.00,CLR,SKC,0.00,0.0,WeatherDisplay:10.37,2013-03-17 10:13:00,
2013-03-17 06:18:00,56.7,51.9,29.99,West,262,2.3,2.3,84,0.00,CLR,SKC,0.00,0.0,WeatherDisplay:10.37,2013-03-17 10:18:00,
2013-03-17 06:23:00,56.7,51.9,29.99,West,262,1.2,0.0,84,0.00,CLR,SKC,0.00,0.0,WeatherDisplay:10.37,2013-03-17 10:23:00,
2013-03-17 06:28:00,56.6,51.8,29.99,West,262,0.0,0.0,84,0.00,CLR,SKC,0.00,0.0,WeatherDisplay:10.37,2013-03-17 10:28:00,
2013-03-17 06:33:00,56.6,52.1,29.99,West,262,1.2,0.0,85,0.00,CLR,SKC,0.00,0.0,WeatherDisplay:10.37,2013-03-17 10:33:00,
2013-03-17 06:38:00,56.6,52.1,29.99,West,262,0.0,0.0,85,0.00,CLR,SKC,0.00,0.0,WeatherDisplay:10.37,2013-03-17 10:38:00,
2013-03-17 06:43:00,56.6,52.1,30.00,SW,229,0.0,0.0,85,0.00,CLR,SKC,0.00,0.0,WeatherDisplay:10.37,2013-03-17 10:43:00,
2013-03-17 06:49:00,56.6,52.1,30.00,SW,229,0.0,0.0,85,0.00,CLR,SKC,0.00,0.0,WeatherDisplay:10.37,2013-03-17 10:49:00,
2013-03-17 06:54:00,56.4,51.9,30.00,SW,229,0.0,0.0,85,0.00,CLR,SKC,0.00,0.0,WeatherDisplay:10.37,2013-03-17 10:54:00,
2013-03-17 06:59:00,56.5,52.4,30.00,WNW,302,3.5,3.5,86,0.00,CLR,SKC,0.00,0.0,WeatherDisplay:10.37,2013-03-17 10:59:00,
2013-03-17 07:04:00,56.5,52.4,30.00,WNW,302,0.0,0.0,86,0.00,CLR,SKC,0.00,0.0,WeatherDisplay:10.37,2013-03-17 11:04:00,
2013-03-17 07:09:00,56.4,52.3,30.00,WNW,302,0.0,0.0,86,0.00,CLR,SKC,0.00,0.0,WeatherDisplay:10.37,2013-03-17 11:09:00,
2013-03-17 07:14:00,56.4,52.3,30.01,WNW,302,0.0,0.0,86,0.00,CLR,SKC,0.00,0.0,WeatherDisplay:10.37,2013-03-17 11:14:00,
2013-03-17 07:19:00,56.4,52.3,30.00,North,360,2.3,2.3,86,0.00,CLR,SKC,0.00,0.0,WeatherDisplay:10.37,2013-03-17 11:19:00,
2013-03-17 07:24:00,56.3,52.2,30.00,WNW,290,1.2,1.2,86,0.00,CLR,SKC,0.00,0.0,WeatherDisplay:10.37,2013-03-17 11:24:00,
2013-03-17 07:29:00,56.3,52.2,30.01,WNW,290,0.0,0.0,86,0.00,CLR,SKC,0.00,0.0,WeatherDisplay:10.37,2013-03-17 11:29:00,
2013-03-17 07:34:00,56.3,52.2,30.01,WNW,290,1.2,0.0,86,0.00,CLR,SKC,0.00,7.0,WeatherDisplay:10.37,2013-03-17 11:34:00,
2013-03-17 07:39:00,56.3,52.5,30.01,WNW,290,0.0,0.0,87,0.00,CLR,SKC,0.00,9.0,WeatherDisplay:10.37,2013-03-17 11:39:00,
2013-03-17 07:44:00,56.4,52.6,30.01,WNW,293,0.0,0.0,87,0.00,CLR,SKC,0.00,12.0,WeatherDisplay:10.37,2013-03-17 11:44:00,
2013-03-17 07:49:00,56.7,52.9,30.01,WNW,294,0.0,0.0,87,0.00,CLR,SKC,0.00,16.0,WeatherDisplay:10.37,2013-03-17 11:49:00,
2013-03-17 07:54:00,56.9,53.1,30.01,West,269,6.9,6.9,87,0.00,CLR,SKC,0.00,25.0,WeatherDisplay:10.37,2013-03-17 11:54:00,
2013-03-17 07:59:00,57.5,53.3,30.02,West,277,1.2,1.2,86,0.00,CLR,SKC,0.00,37.0,WeatherDisplay:10.37,2013-03-17 11:59:00,
2013-03-17 08:04:00,57.9,53.7,30.02,West,281,1.2,1.2,86,0.00,CLR,SKC,0.00,47.0,WeatherDisplay:10.37,2013-03-17 12:04:00,
2013-03-17 08:09:00,58.4,53.9,30.02,SW,233,3.5,3.5,85,0.00,CLR,SKC,0.00,62.0,WeatherDisplay:10.37,2013-03-17 12:09:00,
2013-03-17 08:14:00,58.7,54.2,30.02,SSW,196,3.5,3.5,85,0.00,CLR,SKC,0.00,79.0,WeatherDisplay:10.37,2013-03-17 12:14:00,
2013-03-17 08:19:00,59.1,54.3,30.02,West,268,1.2,1.2,84,0.00,CLR,SKC,0.00,93.0,WeatherDisplay:10.37,2013-03-17 12:19:00,
2013-03-17 08:24:00,59.3,54.1,30.02,SW,229,1.2,0.0,83,0.00,CLR,SKC,0.00,113.0,WeatherDisplay:10.37,2013-03-17 12:24:00,
2013-03-17 08:29:00,59.6,54.4,30.02,West,279,3.5,3.5,83,0.00,CLR,SKC,0.00,134.0,WeatherDisplay:10.37,2013-03-17 12:29:00,
2013-03-17 08:34:00,60.0,54.5,30.03,West,276,2.3,2.3,82,0.00,CLR,SKC,0.00,155.0,WeatherDisplay:10.37,2013-03-17 12:34:00,
2013-03-17 08:39:00,60.3,54.8,30.03,WNW,288,3.5,3.5,82,0.00,CLR,SKC,0.00,178.0,WeatherDisplay:10.37,2013-03-17 12:39:00,
2013-03-17 08:44:00,60.7,54.8,30.03,WSW,249,1.2,1.2,81,0.00,CLR,SKC,0.00,197.0,WeatherDisplay:10.37,2013-03-17 12:44:00,
2013-03-17 08:49:00,60.9,55.0,30.03,WSW,244,2.3,2.3,81,0.00,CLR,SKC,0.00,216.0,WeatherDisplay:10.37,2013-03-17 12:49:00,
2013-03-17 08:54:00,61.4,55.5,30.03,West,269,2.3,2.3,81,0.00,CLR,SKC,0.00,236.0,WeatherDisplay:10.37,2013-03-17 12:54:00,
2013-03-17 08:59:00,61.6,55.4,30.03,West,265,3.5,3.5,80,0.00,CLR,SKC,0.00,251.0,WeatherDisplay:10.37,2013-03-17 12:59:00,
2013-03-17 09:04:00,61.9,55.7,30.03,West,269,2.3,2.3,80,0.00,FEW,SKC,0.00,271.0,WeatherDisplay:10.37,2013-03-17 13:04:00,
2013-03-17 09:09:00,62.3,55.7,30.03,WNW,290,4.6,4.6,79,0.00,FEW,SKC,0.00,287.0,WeatherDisplay:10.37,2013-03-17 13:09:00,
2013-03-17 09:14:00,62.6,56.0,30.03,WNW,294,5.0,5.0,79,0.00,FEW,SKC,0.00,299.0,WeatherDisplay:10.37,2013-03-17 13:14:00,
2013-03-17 09:19:00,63.1,56.1,30.03,West,267,2.3,0.0,78,0.00,FEW,SKC,0.00,130.0,WeatherDisplay:10.37,2013-03-17 13:19:00,
2013-03-17 09:24:00,63.5,56.2,30.03,West,259,3.5,3.5,77,0.00,FEW,SKC,0.00,155.0,WeatherDisplay:10.37,2013-03-17 13:24:00,
2013-03-17 09:29:00,63.9,56.2,30.03,WSW,241,8.1,8.1,76,0.00,FEW,SKC,0.00,202.0,WeatherDisplay:10.37,2013-03-17 13:29:00,
2013-03-17 09:34:00,64.3,56.6,30.03,WNW,297,5.8,5.8,76,0.00,FEW,SKC,0.00,146.0,WeatherDisplay:10.37,2013-03-17 13:34:00,
2013-03-17 09:39:00,64.7,56.6,30.03,WSW,242,9.2,9.2,75,0.00,FEW,SKC,0.00,179.0,WeatherDisplay:10.37,2013-03-17 13:39:00,
2013-03-17 09:44:00,65.3,56.8,30.03,West,267,5.0,5.0,74,0.00,FEW,SKC,0.00,153.0,WeatherDisplay:10.37,2013-03-17 13:44:00,
2013-03-17 09:49:00,65.7,56.4,30.03,West,262,10.4,10.4,72,0.00,FEW,SKC,0.00,207.0,WeatherDisplay:10.37,2013-03-17 13:49:00,
2013-03-17 09:54:00,66.0,56.7,30.03,West,264,5.8,5.8,72,0.00,FEW,SKC,0.00,135.0,WeatherDisplay:10.37,2013-03-17 13:54:00,
2013-03-17 09:59:00,66.3,57.0,30.03,SW,231,5.8,5.8,72,0.00,FEW,SKC,0.00,211.0,WeatherDisplay:10.37,2013-03-17 13:59:00,
2013-03-17 10:04:00,66.6,56.5,30.03,SW,234,5.8,5.8,70,0.00,FEW,SKC,0.00,156.0,WeatherDisplay:10.37,2013-03-17 14:04:00,
2013-03-17 10:09:00,66.8,56.7,30.03,West,279,11.5,11.5,70,0.00,FEW,SKC,0.00,153.0,WeatherDisplay:10.37,2013-03-17 14:09:00,
2013-03-17 10:14:00,67.2,56.7,30.03,WNW,287,8.1,8.1,69,0.00,FEW,SKC,0.00,213.0,WeatherDisplay:10.37,2013-03-17 14:14:00,
2013-03-17 10:19:00,67.7,56.8,30.03,WSW,256,3.5,3.5,68,0.00,FEW,SKC,0.00,390.0,WeatherDisplay:10.37,2013-03-17 14:19:00,
2013-03-17 10:24:00,68.0,56.6,30.03,SW,233,5.8,5.8,67,0.00,FEW,SKC,0.00,311.0,WeatherDisplay:10.37,2013-03-17 14:24:00,
2013-03-17 10:29:00,68.3,56.5,30.03,West,263,5.8,6.1,66,0.00,FEW,SKC,0.00,524.0,WeatherDisplay:10.37,2013-03-17 14:29:00,
2013-03-17 10:34:00,68.6,56.4,30.03,SW,232,5.8,5.8,65,0.00,FEW,SKC,0.00,591.0,WeatherDisplay:10.37,2013-03-17 14:34:00,
2013-03-17 10:39:00,69.4,56.7,30.03,SSW,213,4.6,4.6,64,0.00,FEW,SKC,0.00,612.0,WeatherDisplay:10.37,2013-03-17 14:39:00,
2013-03-17 10:44:00,69.4,56.3,30.03,WSW,244,6.9,6.9,63,0.00,FEW,SKC,0.00,543.0,WeatherDisplay:10.37,2013-03-17 14:44:00,
2013-03-17 10:49:00,69.7,56.5,30.03,WSW,255,3.5,3.5,63,0.00,FEW,SKC,0.00,483.0,WeatherDisplay:10.37,2013-03-17 14:49:00,
2013-03-17 10:54:00,70.1,56.9,30.03,West,269,8.1,8.1,63,0.00,FEW,SKC,0.00,531.0,WeatherDisplay:10.37,2013-03-17 14:54:00,
2013-03-17 10:59:00,70.5,56.9,30.03,WSW,242,9.2,9.2,62,0.00,FEW,SKC,0.00,640.0,WeatherDisplay:10.37,2013-03-17 14:59:00,
2013-03-17 11:04:00,70.4,56.3,30.03,WSW,237,5.8,5.8,61,0.00,FEW,SKC,0.00,554.0,WeatherDisplay:10.37,2013-03-17 15:04:00,
2013-03-17 11:09:00,70.9,56.8,30.03,WSW,254,8.1,8.1,61,0.00,FEW,SKC,0.00,693.0,WeatherDisplay:10.37,2013-03-17 15:09:00,
2013-03-17 11:14:00,71.1,57.0,30.02,WSW,244,4.6,4.6,61,0.00,FEW,SKC,0.00,679.0,WeatherDisplay:10.37,2013-03-17 15:14:00,
2013-03-17 11:19:00,71.8,57.2,30.02,West,260,6.9,6.9,60,0.00,FEW,SKC,0.00,619.0,WeatherDisplay:10.37,2013-03-17 15:19:00,
2013-03-17 11:24:00,71.7,56.6,30.02,West,278,9.2,9.2,59,0.00,FEW,SKC,0.00,371.0,WeatherDisplay:10.37,2013-03-17 15:24:00,
2013-03-17 11:29:00,71.7,56.6,30.02,WNW,288,9.0,9.0,59,0.00,FEW,SKC,0.00,712.0,WeatherDisplay:10.37,2013-03-17 15:29:00,
2013-03-17 11:34:00,71.7,56.6,30.02,NNW,337,11.5,11.5,59,0.00,FEW,SKC,0.00,659.0,WeatherDisplay:10.37,2013-03-17 15:34:00,
2013-03-17 11:39:00,72.3,56.7,30.02,WNW,288,9.2,9.2,58,0.00,FEW,SKC,0.00,747.0,WeatherDisplay:10.37,2013-03-17 15:39:00,
2013-03-17 11:44:00,72.8,56.7,30.02,West,263,11.5,11.5,57,0.00,FEW,SKC,0.00,744.0,WeatherDisplay:10.37,2013-03-17 15:44:00,
2013-03-17 11:49:00,73.1,57.0,30.02,SW,227,3.5,3.5,57,0.00,FEW,SKC,0.00,763.0,WeatherDisplay:10.37,2013-03-17 15:49:00,
2013-03-17 11:55:00,74.0,57.3,30.02,WNW,294,4.6,4.6,56,0.00,FEW,SKC,0.00,729.0,WeatherDisplay:10.37,2013-03-17 15:55:00,
2013-03-17 12:00:00,74.0,56.8,30.02,West,270,3.0,8.0,55,0.00,FEW,SKC,0.00,749.0,WeatherDisplay:10.37,2013-03-17 16:00:00,
2013-03-17 12:05:00,74.1,57.4,30.01,West,264,5.0,8.0,56,0.00,BKN,SKC,0.00,700.0,WeatherDisplay:10.37,2013-03-17 16:05:00,
2013-03-17 12:10:00,74.4,56.7,30.01,West,281,12.0,12.0,54,0.00,BKN,SKC,0.00,729.0,WeatherDisplay:10.37,2013-03-17 16:10:00,
2013-03-17 12:15:00,73.7,56.0,30.01,West,275,5.0,12.0,54,0.00,BKN,SKC,0.00,780.0,WeatherDisplay:10.37,2013-03-17 16:15:00,
2013-03-17 12:20:00,74.7,57.5,30.01,WSW,240,3.5,3.5,55,0.00,BKN,SKC,0.00,819.0,WeatherDisplay:10.37,2013-03-17 16:20:00,
2013-03-17 12:25:00,75.1,57.8,30.01,WSW,249,1.0,8.0,55,0.00,BKN,SKC,0.00,756.0,WeatherDisplay:10.37,2013-03-17 16:25:00,
2013-03-17 12:30:00,75.5,56.6,30.01,WSW,248,1.0,6.0,52,0.00,BKN,SKC,0.00,740.0,WeatherDisplay:10.37,2013-03-17 16:30:00,
2013-03-17 12:35:00,75.0,57.2,30.01,SW,236,2.3,2.3,54,0.00,BKN,SKC,0.00,708.0,WeatherDisplay:10.37,2013-03-17 16:35:00,
2013-03-17 12:40:00,76.0,56.6,30.01,NW,315,3.5,3.5,51,0.00,BKN,SKC,0.00,540.0,WeatherDisplay:10.37,2013-03-17 16:40:00,
2013-03-17 12:45:00,75.4,56.0,30.00,NW,310,4.6,4.6,51,0.00,BKN,SKC,0.00,575.0,WeatherDisplay:10.37,2013-03-17 16:45:00,
2013-03-17 12:50:00,75.4,56.6,30.00,West,274,2.0,5.0,52,0.00,BKN,SKC,0.00,831.0,WeatherDisplay:10.37,2013-03-17 16:50:00,
2013-03-17 12:55:00,76.0,56.6,30.00,WNW,290,4.0,4.0,51,0.00,BKN,SKC,0.00,835.0,WeatherDisplay:10.37,2013-03-17 16:55:00,
2013-03-17 13:00:00,75.4,56.0,30.00,NNW,342,8.1,8.1,51,0.00,BKN,SKC,0.00,701.0,WeatherDisplay:10.37,2013-03-17 17:00:00,
2013-03-17 13:05:00,75.4,56.0,30.00,SW,215,3.5,3.5,51,0.00,BKN,SKC,0.00,536.0,WeatherDisplay:10.37,2013-03-17 17:05:00,
2013-03-17 13:10:00,75.1,56.3,30.00,SW,224,3.5,3.5,52,0.00,BKN,SKC,0.00,824.0,WeatherDisplay:10.37,2013-03-17 17:10:00,
2013-03-17 13:15:00,76.3,57.9,29.99,SSE,166,3.5,3.5,53,0.00,BKN,SKC,0.00,860.0,WeatherDisplay:10.37,2013-03-17 17:15:00,
2013-03-17 13:20:00,77.6,57.5,29.99,South,180,3.5,3.5,50,0.00,BKN,SKC,0.00,870.0,WeatherDisplay:10.37,2013-03-17 17:20:00,
2013-03-17 13:25:00,77.2,56.6,29.99,WSW,247,8.1,8.1,49,0.00,BKN,SKC,0.00,853.0,WeatherDisplay:10.37,2013-03-17 17:25:00,
2013-03-17 13:30:00,76.7,56.7,29.99,West,275,3.5,3.5,50,0.00,BKN,SKC,0.00,810.0,WeatherDisplay:10.37,2013-03-17 17:30:00,
2013-03-17 13:35:00,77.3,56.6,29.98,South,184,1.2,1.2,49,0.00,BKN,SKC,0.00,824.0,WeatherDisplay:10.37,2013-03-17 17:35:00,
2013-03-17 13:40:00,78.0,56.1,29.98,SSW,212,3.5,3.5,47,0.00,BKN,SKC,0.00,895.0,WeatherDisplay:10.37,2013-03-17 17:40:00,
2013-03-17 13:45:00,77.9,56.0,29.98,SW,231,3.5,3.5,47,0.00,BKN,SKC,0.00,858.0,WeatherDisplay:10.37,2013-03-17 17:45:00,
2013-03-17 13:50:00,77.6,54.6,29.98,West,265,8.1,8.1,45,0.00,BKN,SKC,0.00,796.0,WeatherDisplay:10.37,2013-03-17 17:50:00,
2013-03-17 13:55:00,77.9,53.6,29.97,West,264,3.5,3.5,43,0.00,BKN,SKC,0.00,800.0,WeatherDisplay:10.37,2013-03-17 17:55:00,
2013-03-17 14:00:00,77.8,54.1,29.98,WSW,246,3.5,3.5,44,0.00,BKN,SKC,0.00,824.0,WeatherDisplay:10.37,2013-03-17 18:00:00,
2013-03-17 14:05:00,78.1,53.1,29.98,SW,233,3.5,3.6,42,0.00,BKN,SKC,0.00,788.0,WeatherDisplay:10.37,2013-03-17 18:05:00,
2013-03-17 14:10:00,78.0,53.0,29.97,SSW,209,6.9,6.9,42,0.00,BKN,SKC,0.00,874.0,WeatherDisplay:10.37,2013-03-17 18:10:00,
2013-03-17 14:15:00,76.8,53.8,29.97,West,260,3.5,3.5,45,0.00,BKN,SKC,0.00,260.0,WeatherDisplay:10.37,2013-03-17 18:15:00,
2013-03-17 14:20:00,75.2,53.0,29.97,West,280,4.0,4.0,46,0.00,BKN,SKC,0.00,287.0,WeatherDisplay:10.37,2013-03-17 18:20:00,
2013-03-17 14:25:00,75.6,54.5,29.96,NNW,340,2.3,2.3,48,0.00,BKN,SKC,0.00,782.0,WeatherDisplay:10.37,2013-03-17 18:25:00,
2013-03-17 14:30:00,77.8,54.8,29.96,West,271,2.3,2.3,45,0.00,BKN,SKC,0.00,954.0,WeatherDisplay:10.37,2013-03-17 18:30:00,
2013-03-17 14:35:00,78.4,54.7,29.96,West,279,7.0,7.0,44,0.00,BKN,SKC,0.00,991.0,WeatherDisplay:10.37,2013-03-17 18:35:00,
2013-03-17 14:40:00,78.6,54.2,29.96,South,178,3.5,3.5,43,0.00,BKN,SKC,0.00,719.0,WeatherDisplay:10.37,2013-03-17 18:40:00,
2013-03-17 14:45:00,77.5,53.9,29.95,WNW,291,8.0,8.0,44,0.00,BKN,SKC,0.00,670.0,WeatherDisplay:10.37,2013-03-17 18:45:00,
2013-03-17 14:50:00,77.3,54.3,29.95,South,182,1.2,1.2,45,0.00,BKN,SKC,0.00,329.0,WeatherDisplay:10.37,2013-03-17 18:50:00,
2013-03-17 14:55:00,76.4,54.7,29.95,West,262,5.8,5.8,47,0.00,BKN,SKC,0.00,292.0,WeatherDisplay:10.37,2013-03-17 18:55:00,
2013-03-17 15:00:00,76.2,55.1,29.95,WSW,252,3.5,3.5,48,0.00,BKN,SKC,0.00,489.0,WeatherDisplay:10.37,2013-03-17 19:00:00,
2013-03-17 15:05:00,76.3,55.2,29.95,West,263,6.0,6.0,48,0.00,BKN,SKC,0.00,489.0,WeatherDisplay:10.37,2013-03-17 19:05:00,
2013-03-17 15:10:00,77.0,55.2,29.95,South,176,3.5,3.5,47,0.00,BKN,SKC,0.00,250.0,WeatherDisplay:10.37,2013-03-17 19:10:00,
2013-03-17 15:15:00,75.6,56.7,29.95,SSE,153,3.5,3.5,52,0.00,BKN,SKC,0.00,200.0,WeatherDisplay:10.37,2013-03-17 19:15:00,
2013-03-17 15:20:00,74.8,58.1,29.95,SW,227,2.3,2.3,56,0.00,BKN,SKC,0.00,466.0,WeatherDisplay:10.37,2013-03-17 19:20:00,
2013-03-17 15:25:00,74.9,57.6,29.95,ESE,120,4.6,4.6,55,0.00,BKN,SKC,0.00,172.0,WeatherDisplay:10.37,2013-03-17 19:25:00,
2013-03-17 15:30:00,75.5,58.2,29.94,SSW,198,3.5,3.5,55,0.00,BKN,SKC,0.00,387.0,WeatherDisplay:10.37,2013-03-17 19:30:00,
2013-03-17 15:35:00,75.7,58.4,29.94,SE,142,3.5,3.5,55,0.00,BKN,SKC,0.00,686.0,WeatherDisplay:10.37,2013-03-17 19:35:00,
2013-03-17 15:40:00,76.1,58.2,29.94,South,179,3.5,3.5,54,0.00,BKN,SKC,0.00,875.0,WeatherDisplay:10.37,2013-03-17 19:40:00,
2013-03-17 15:45:00,75.8,58.0,29.95,South,179,3.5,3.5,54,0.00,BKN,SKC,0.00,881.0,WeatherDisplay:10.37,2013-03-17 19:45:00,
2013-03-17 15:50:00,76.0,58.7,29.95,SSE,150,3.5,3.5,55,0.00,BKN,SKC,0.00,671.0,WeatherDisplay:10.37,2013-03-17 19:50:00,
2013-03-17 15:55:00,76.1,58.2,29.94,SW,215,3.5,3.5,54,0.00,BKN,SKC,0.00,823.0,WeatherDisplay:10.37,2013-03-17 19:55:00,
2013-03-17 16:00:00,76.5,58.1,29.94,ESE,116,3.5,3.5,53,0.00,BKN,SKC,0.00,737.0,WeatherDisplay:10.37,2013-03-17 20:00:00,
2013-03-17 16:05:00,76.4,58.0,29.95,WSW,252,4.6,4.6,53,0.00,BKN,SKC,0.00,599.0,WeatherDisplay:10.37,2013-03-17 20:05:00,
2013-03-17 16:10:00,75.1,57.8,29.95,SSE,161,4.6,4.6,55,0.00,BKN,SKC,0.00,360.0,WeatherDisplay:10.37,2013-03-17 20:10:00,
2013-03-17 16:15:00,73.8,57.6,29.94,SE,141,3.5,3.5,57,0.00,BKN,SKC,0.00,338.0,WeatherDisplay:10.37,2013-03-17 20:15:00,
2013-03-17 16:20:00,72.6,57.4,29.94,NNE,24,3.5,3.5,59,0.00,BKN,SKC,0.00,350.0,WeatherDisplay:10.37,2013-03-17 20:20:00,
2013-03-17 16:25:00,72.4,57.7,29.95,NNE,27,3.5,3.5,60,0.00,BKN,SKC,0.00,255.0,WeatherDisplay:10.37,2013-03-17 20:25:00,
2013-03-17 16:30:00,72.0,57.4,29.95,South,171,5.8,5.8,60,0.00,BKN,SKC,0.00,227.0,WeatherDisplay:10.37,2013-03-17 20:30:00,
2013-03-17 16:35:00,71.2,57.5,29.95,SSW,204,5.0,5.0,62,0.00,BKN,SKC,0.00,220.0,WeatherDisplay:10.37,2013-03-17 20:35:00,
2013-03-17 16:40:00,70.9,57.2,29.95,SSW,192,3.5,3.5,62,0.00,BKN,SKC,0.00,190.0,WeatherDisplay:10.37,2013-03-17 20:40:00,
2013-03-17 16:45:00,71.0,57.8,29.95,WSW,246,3.5,3.5,63,0.00,BKN,SKC,0.00,185.0,WeatherDisplay:10.37,2013-03-17 20:45:00,
2013-03-17 16:50:00,70.8,57.6,29.95,SSW,195,3.5,3.5,63,0.00,BKN,SKC,0.00,185.0,WeatherDisplay:10.37,2013-03-17 20:50:00,
2013-03-17 16:55:00,70.5,57.3,29.95,South,171,2.3,2.3,63,0.00,BKN,SKC,0.00,149.0,WeatherDisplay:10.37,2013-03-17 20:55:00,
2013-03-17 17:00:00,69.9,56.7,29.95,SSW,193,3.5,3.5,63,0.00,BKN,SKC,0.00,158.0,WeatherDisplay:10.37,2013-03-17 21:00:00,
2013-03-17 17:05:00,69.7,55.6,29.95,SSE,157,5.8,5.8,61,0.00,OVC,SKC,0.00,146.0,WeatherDisplay:10.37,2013-03-17 21:05:00,
2013-03-17 17:10:00,69.2,53.8,29.95,South,187,3.5,3.5,58,0.00,OVC,SKC,0.00,139.0,WeatherDisplay:10.37,2013-03-17 21:10:00,
2013-03-17 17:15:00,69.3,52.9,29.95,South,177,1.2,1.4,56,0.00,OVC,SKC,0.00,144.0,WeatherDisplay:10.37,2013-03-17 21:15:00,
2013-03-17 17:20:00,69.3,51.9,29.96,NNE,29,2.3,2.3,54,0.00,OVC,SKC,0.00,153.0,WeatherDisplay:10.37,2013-03-17 21:20:00,
2013-03-17 17:25:00,69.1,51.2,29.96,NE,55,3.5,3.5,53,0.00,OVC,SKC,0.00,128.0,WeatherDisplay:10.37,2013-03-17 21:25:00,
2013-03-17 17:30:00,68.9,51.6,29.96,WSW,243,2.3,2.3,54,0.00,OVC,SKC,0.00,116.0,WeatherDisplay:10.37,2013-03-17 21:30:00,
2013-03-17 17:35:00,68.5,51.7,29.96,SE,140,3.5,3.5,55,0.00,OVC,SKC,0.00,90.0,WeatherDisplay:10.37,2013-03-17 21:35:00,
2013-03-17 17:40:00,68.2,51.9,29.96,SSE,163,3.5,3.5,56,0.00,OVC,SKC,0.00,72.0,WeatherDisplay:10.37,2013-03-17 21:40:00,
2013-03-17 17:45:00,67.9,51.6,29.96,SE,141,1.2,1.2,56,0.00,OVC,SKC,0.00,70.0,WeatherDisplay:10.37,2013-03-17 21:45:00,
2013-03-17 17:50:00,67.6,50.9,29.96,SE,126,2.3,2.3,55,0.00,OVC,SKC,0.00,84.0,WeatherDisplay:10.37,2013-03-17 21:50:00,
2013-03-17 17:55:00,67.3,51.1,29.97,ESE,119,2.3,2.3,56,0.00,OVC,SKC,0.00,100.0,WeatherDisplay:10.37,2013-03-17 21:55:00,
2013-03-17 18:01:00,67.3,51.1,29.97,South,190,2.3,2.3,56,0.00,OVC,SKC,0.00,95.0,WeatherDisplay:10.37,2013-03-17 22:01:00,
2013-03-17 18:05:00,67.1,51.4,29.97,South,175,3.5,3.5,57,0.00,OVC,SKC,0.00,95.0,WeatherDisplay:10.37,2013-03-17 22:05:00,
2013-03-17 18:11:00,66.9,51.6,29.97,South,188,3.5,3.5,58,0.00,OVC,SKC,0.00,84.0,WeatherDisplay:10.37,2013-03-17 22:11:00,
2013-03-17 18:16:00,66.7,51.9,29.97,West,264,3.5,3.5,59,0.00,OVC,SKC,0.00,83.0,WeatherDisplay:10.37,2013-03-17 22:16:00,
2013-03-17 18:21:00,66.7,52.4,29.97,ESE,113,0.0,0.1,60,0.00,OVC,SKC,0.00,79.0,WeatherDisplay:10.37,2013-03-17 22:21:00,
2013-03-17 18:26:00,66.4,52.1,29.97,WNW,283,1.2,1.2,60,0.00,OVC,SKC,0.00,60.0,WeatherDisplay:10.37,2013-03-17 22:26:00,
2013-03-17 18:31:00,66.3,52.0,29.98,East,82,3.5,3.5,60,0.00,OVC,SKC,0.00,63.0,WeatherDisplay:10.37,2013-03-17 22:31:00,
2013-03-17 18:36:00,66.2,51.9,29.98,SSW,196,0.0,0.0,60,0.00,OVC,SKC,0.00,44.0,WeatherDisplay:10.37,2013-03-17 22:36:00,
2013-03-17 18:41:00,66.2,51.9,29.97,SSE,148,3.5,3.5,60,0.00,OVC,SKC,0.00,25.0,WeatherDisplay:10.37,2013-03-17 22:41:00,
2013-03-17 18:46:00,65.9,51.6,29.98,ENE,72,2.3,2.3,60,0.00,OVC,SKC,0.00,18.0,WeatherDisplay:10.37,2013-03-17 22:46:00,
2013-03-17 18:51:00,65.8,51.5,29.98,SW,220,2.3,2.3,60,0.00,OVC,SKC,0.00,12.0,WeatherDisplay:10.37,2013-03-17 22:51:00,
2013-03-17 18:56:00,65.6,51.3,29.98,SSE,161,2.3,2.3,60,0.00,OVC,SKC,0.00,12.0,WeatherDisplay:10.37,2013-03-17 22:56:00,
2013-03-17 19:01:00,65.4,51.1,29.98,ESE,121,2.3,2.3,60,0.00,OVC,SKC,0.00,14.0,WeatherDisplay:10.37,2013-03-17 23:01:00,
2013-03-17 19:06:00,65.4,51.1,29.98,NNE,12,2.3,2.3,60,0.00,OVC,SKC,0.00,11.0,WeatherDisplay:10.37,2013-03-17 23:06:00,
2013-03-17 19:11:00,65.3,51.1,29.98,SE,126,2.3,2.3,60,0.00,OVC,SKC,0.00,9.0,WeatherDisplay:10.37,2013-03-17 23:11:00,
2013-03-17 19:17:00,65.2,51.0,29.98,South,189,1.2,0.0,60,0.00,OVC,SKC,0.00,7.0,WeatherDisplay:10.37,2013-03-17 23:17:00,
2013-03-17 19:22:00,65.0,50.8,29.98,NNE,15,3.5,3.5,60,0.00,OVC,SKC,0.00,0.0,WeatherDisplay:10.37,2013-03-17 23:22:00,
2013-03-17 19:27:00,64.8,51.0,29.99,WNW,302,1.2,1.2,61,0.00,OVC,SKC,0.00,0.0,WeatherDisplay:10.37,2013-03-17 23:27:00,
2013-03-17 19:32:00,64.6,50.8,29.99,SE,126,1.2,1.2,61,0.00,OVC,SKC,0.00,0.0,WeatherDisplay:10.37,2013-03-17 23:32:00,
2013-03-17 19:37:00,64.4,50.7,29.99,South,188,0.0,0.0,61,0.00,OVC,SKC,0.00,0.0,WeatherDisplay:10.37,2013-03-17 23:37:00,
2013-03-17 19:42:00,64.4,51.1,29.99,NE,56,1.2,0.0,62,0.00,OVC,SKC,0.00,0.0,WeatherDisplay:10.37,2013-03-17 23:42:00,
2013-03-17 19:47:00,64.3,50.6,29.99,ESE,103,1.2,0.0,61,0.00,OVC,SKC,0.00,0.0,WeatherDisplay:10.37,2013-03-17 23:47:00,
2013-03-17 19:52:00,64.2,50.9,30.00,East,98,2.3,2.3,62,0.00,OVC,SKC,0.00,0.0,WeatherDisplay:10.37,2013-03-17 23:52:00,
2013-03-17 19:57:00,64.1,50.8,30.00,SE,140,2.3,2.3,62,0.00,OVC,SKC,0.00,0.0,WeatherDisplay:10.37,2013-03-17 23:57:00,
2013-03-17 20:03:00,64.0,51.1,30.00,SSW,201,0.0,0.5,63,0.00,OVC,SKC,0.00,0.0,WeatherDisplay:10.37,2013-03-18 00:03:00,
2013-03-17 20:08:00,63.8,51.4,30.00,SSW,201,1.2,1.2,64,0.00,OVC,SKC,0.00,0.0,WeatherDisplay:10.37,2013-03-18 00:08:00,
2013-03-17 20:13:00,63.6,51.2,30.00,NNW,336,2.3,2.3,64,0.00,OVC,SKC,0.00,0.0,WeatherDisplay:10.37,2013-03-18 00:13:00,
2013-03-17 20:18:00,63.6,51.6,30.00,SSE,152,0.0,0.0,65,0.00,OVC,SKC,0.00,0.0,WeatherDisplay:10.37,2013-03-18 00:18:00,
2013-03-17 20:23:00,63.2,51.2,30.01,SE,142,0.0,0.0,65,0.00,OVC,SKC,0.00,0.0,WeatherDisplay:10.37,2013-03-18 00:23:00,
2013-03-17 20:28:00,63.1,51.6,30.01,SE,142,1.2,1.2,66,0.00,OVC,SKC,0.00,0.0,WeatherDisplay:10.37,2013-03-18 00:28:00,
2013-03-17 20:33:00,63.0,51.9,30.01,SE,134,4.6,4.6,67,0.00,OVC,SKC,0.00,0.0,WeatherDisplay:10.37,2013-03-18 00:33:00,
2013-03-17 20:38:00,63.0,51.9,30.01,SSW,199,1.2,1.2,67,0.00,OVC,SKC,0.00,0.0,WeatherDisplay:10.37,2013-03-18 00:38:00,
2013-03-17 20:43:00,62.9,51.8,30.01,SSW,199,0.0,0.0,67,0.00,OVC,SKC,0.00,0.0,WeatherDisplay:10.37,2013-03-18 00:43:00,
2013-03-17 20:48:00,62.9,51.8,30.02,East,95,1.2,1.2,67,0.00,OVC,SKC,0.00,0.0,WeatherDisplay:10.37,2013-03-18 00:48:00,
2013-03-17 20:53:00,63.0,51.9,30.02,SE,126,1.2,1.2,67,0.00,OVC,SKC,0.00,0.0,WeatherDisplay:10.37,2013-03-18 00:53:00,
2013-03-17 20:58:00,63.0,51.9,30.02,South,175,2.3,2.3,67,0.00,OVC,SKC,0.00,0.0,WeatherDisplay:10.37,2013-03-18 00:58:00,
2013-03-17 21:03:00,63.1,52.0,30.01,WSW,251,2.3,2.3,67,0.00,OVC,SKC,0.00,0.0,WeatherDisplay:10.37,2013-03-18 01:03:00,
2013-03-17 21:08:00,63.1,52.0,30.01,WSW,250,0.0,0.0,67,0.00,OVC,SKC,0.00,0.0,WeatherDisplay:10.37,2013-03-18 01:08:00,
2013-03-17 21:13:00,63.1,52.0,30.01,SSE,156,1.2,1.2,67,0.00,OVC,SKC,0.00,0.0,WeatherDisplay:10.37,2013-03-18 01:13:00,
2013-03-17 21:18:00,62.9,51.8,30.01,SSE,156,0.0,0.0,67,0.00,OVC,SKC,0.00,0.0,WeatherDisplay:10.37,2013-03-18 01:18:00,
2013-03-17 21:23:00,62.8,51.7,30.02,SSE,157,1.2,1.2,67,0.00,OVC,SKC,0.00,0.0,WeatherDisplay:10.37,2013-03-18 01:23:00,
2013-03-17 21:28:00,62.7,52.0,30.02,WNW,283,1.2,1.2,68,0.00,OVC,SKC,0.00,0.0,WeatherDisplay:10.37,2013-03-18 01:28:00,
2013-03-17 21:33:00,62.9,51.8,30.01,WNW,283,1.2,0.0,67,0.00,OVC,SKC,0.00,0.0,WeatherDisplay:10.37,2013-03-18 01:33:00,
2013-03-17 21:38:00,62.9,52.2,30.02,WNW,294,0.0,0.0,68,0.00,OVC,SKC,0.00,0.0,WeatherDisplay:10.37,2013-03-18 01:38:00,
2013-03-17 21:43:00,62.8,52.1,30.02,WNW,294,0.0,0.1,68,0.00,OVC,SKC,0.00,0.0,WeatherDisplay:10.37,2013-03-18 01:43:00,
2013-03-17 21:48:00,63.0,52.3,30.02,WNW,294,1.2,0.0,68,0.00,OVC,SKC,0.00,0.0,WeatherDisplay:10.37,2013-03-18 01:48:00,
2013-03-17 21:53:00,63.0,52.3,30.02,WNW,294,0.0,0.0,68,0.00,OVC,SKC,0.00,0.0,WeatherDisplay:10.37,2013-03-18 01:53:00,
2013-03-17 21:58:00,62.9,52.2,30.02,WNW,294,1.2,0.0,68,0.00,OVC,SKC,0.00,0.0,WeatherDisplay:10.37,2013-03-18 01:58:00,
2013-03-17 22:03:00,62.9,52.2,30.02,WNW,294,0.0,0.0,68,0.00,OVC,SKC,0.00,0.0,WeatherDisplay:10.37,2013-03-18 02:03:00,
2013-03-17 22:08:00,62.8,52.5,30.02,WNW,294,1.0,1.0,69,0.00,OVC,SKC,0.00,0.0,WeatherDisplay:10.37,2013-03-18 02:08:00,
2013-03-17 22:13:00,62.8,52.5,30.02,WNW,294,1.2,0.0,69,0.00,OVC,SKC,0.00,0.0,WeatherDisplay:10.37,2013-03-18 02:13:00,
2013-03-17 22:18:00,62.6,52.3,30.02,WNW,294,0.0,0.0,69,0.00,OVC,SKC,0.00,0.0,WeatherDisplay:10.37,2013-03-18 02:18:00,
2013-03-17 22:23:00,62.5,52.6,30.03,WNW,294,0.0,0.0,70,0.00,OVC,SKC,0.00,0.0,WeatherDisplay:10.37,2013-03-18 02:23:00,
2013-03-17 22:28:00,62.5,52.6,30.02,WNW,294,0.0,0.0,70,0.00,OVC,SKC,0.00,0.0,WeatherDisplay:10.37,2013-03-18 02:28:00,
2013-03-17 22:33:00,62.3,52.8,30.03,WNW,294,0.0,0.0,71,0.00,OVC,SKC,0.00,0.0,WeatherDisplay:10.37,2013-03-18 02:33:00,
2013-03-17 22:38:00,62.3,52.8,30.03,WNW,294,0.0,0.0,71,0.00,OVC,SKC,0.00,0.0,WeatherDisplay:10.37,2013-03-18 02:38:00,
2013-03-17 22:43:00,62.3,53.2,30.03,WNW,294,0.0,0.0,72,0.00,OVC,SKC,0.00,0.0,WeatherDisplay:10.37,2013-03-18 02:43:00,
2013-03-17 22:48:00,62.2,53.1,30.03,WNW,294,0.0,0.0,72,0.00,OVC,SKC,0.00,0.0,WeatherDisplay:10.37,2013-03-18 02:48:00,
2013-03-17 22:53:00,62.3,53.2,30.03,WNW,294,0.0,0.0,72,0.00,OVC,SKC,0.00,0.0,WeatherDisplay:10.37,2013-03-18 02:53:00,
2013-03-17 22:58:00,62.3,53.2,30.03,WNW,294,0.0,0.0,72,0.00,OVC,SKC,0.00,0.0,WeatherDisplay:10.37,2013-03-18 02:58:00,
2013-03-17 23:03:00,62.2,53.1,30.03,WNW,294,0.0,0.0,72,0.00,OVC,SKC,0.00,0.0,WeatherDisplay:10.37,2013-03-18 03:03:00,
2013-03-17 23:08:00,62.2,53.4,30.03,WNW,294,0.0,0.0,73,0.00,OVC,SKC,0.00,0.0,WeatherDisplay:10.37,2013-03-18 03:08:00,
2013-03-17 23:13:00,62.2,53.4,30.03,WNW,294,0.0,0.0,73,0.00,OVC,SKC,0.00,0.0,WeatherDisplay:10.37,2013-03-18 03:13:00,
2013-03-17 23:18:00,62.1,53.3,30.03,WNW,294,0.0,0.0,73,0.00,OVC,SKC,0.00,0.0,WeatherDisplay:10.37,2013-03-18 03:18:00,
2013-03-17 23:23:00,62.0,53.2,30.03,WNW,294,0.0,0.0,73,0.00,OVC,SKC,0.00,0.0,WeatherDisplay:10.37,2013-03-18 03:23:00,
2013-03-17 23:28:00,61.8,53.4,30.03,WNW,294,0.0,0.0,74,0.00,OVC,SKC,0.00,0.0,WeatherDisplay:10.37,2013-03-18 03:28:00,
2013-03-17 23:33:00,61.8,53.4,30.03,WNW,294,0.0,0.0,74,0.00,OVC,SKC,0.00,0.0,WeatherDisplay:10.37,2013-03-18 03:33:00,
2013-03-17 23:38:00,61.8,53.4,30.03,WNW,294,0.0,0.0,74,0.00,OVC,SKC,0.00,0.0,WeatherDisplay:10.37,2013-03-18 03:38:00,
2013-03-17 23:43:00,61.9,53.9,30.03,WNW,294,1.2,0.0,75,0.00,OVC,SKC,0.00,0.0,WeatherDisplay:10.37,2013-03-18 03:43:00,
2013-03-17 23:48:00,61.9,53.9,30.03,WNW,294,0.0,0.0,75,0.00,OVC,SKC,0.00,0.0,WeatherDisplay:10.37,2013-03-18 03:48:00,
2013-03-17 23:53:00,62.0,54.0,30.03,WNW,294,0.0,0.0,75,0.00,OVC,SKC,0.00,0.0,WeatherDisplay:10.37,2013-03-18 03:53:00,
2013-03-17 23:58:00,62.2,53.8,30.03,WNW,294,0.0,0.0,74,0.00,OVC,SKC,0.00,0.0,WeatherDisplay:10.37,2013-03-18 03:58:00,